User: anonymous   Login
Location: ??????
(38.0131°N, 23.7723°E)
Time: 16:55:12
(UTC+00:00)
Language:

Cosmos 489 Rocket - Orbit

View from above orbital plane
View from above orbital plane
View from above satellite
View from above satellite

Ground track
Ground track

The orbit data is extracted from the following two-line orbital elements,

1 06020U 72035B   22020.91383215 -.00000026  00000-0 -30629-5 0  9998
2 06020  74.0231 349.2254 0021818 303.6112 115.9195 13.78856192500299
Epoch (UTC): 20 January 2022 21:55:55
Eccentricity: 0.0021818
inclination: 74.0231°
perigee height: 952 km
apogee height: 984 km
right ascension of ascending node: 349.2254°
argument of perigee: 303.6112°
revolutions per day: 13.78856192
mean anomaly at epoch: 115.9195°
orbit number at epoch: 50029

The dashed part of the orbit path shows where the satellite is in the earth's shadow,  

DLR